This is the latest recevied weather packets stored in our database for station/object WX9WTF. If no packets are shown the sender has not sent any weather packets the latest 10 day(s).
| Time | Temp. | Humidity | Pressure | Rain* | Wind** | Luminosity | Snow |
|---|---|---|---|---|---|---|---|
| 1778181340 | 18.33° C | 55% | 1014.8 hPa | 0 mm | - | 989 W/m² | - |
| 1778181038 | 18.33° C | 60% | 1015 hPa | 0 mm | - | 947 W/m² | - |
| 1778180735 | 18.89° C | 54% | 1015.1 hPa | 0 mm | - | 279 W/m² | - |
| 1778180434 | 18.89° C | 63% | 1015.3 hPa | 0 mm | - | 967 W/m² | - |
| 1778180132 | 18.33° C | 56% | 1015.3 hPa | 0 mm | - | 303 W/m² | - |
| 1778179828 | 18.33° C | 54% | 1015.5 hPa | 0 mm | - | 998 W/m² | - |
| 1778179526 | 18.33° C | 55% | 1015.5 hPa | 0 mm | - | 891 W/m² | - |
| 1778179224 | 18.89° C | 55% | 1015.7 hPa | 0 mm | - | 980 W/m² | - |
| 1778178919 | 18.89° C | 53% | 1015.6 hPa | 0 mm | - | 952 W/m² | - |
| 1778178617 | 18.89° C | 60% | 1015.6 hPa | 0 mm | - | 922 W/m² | - |
| 1778178313 | 18.89° C | 62% | 1015.7 hPa | 0 mm | - | 939 W/m² | - |
| 1778178009 | 18.33° C | 56% | 1015.6 hPa | 0 mm | - | 922 W/m² | - |
| 1778177706 | 17.78° C | 61% | 1015.6 hPa | 0 mm | - | 621 W/m² | - |
| 1778177402 | 17.78° C | 59% | 1016 hPa | 0 mm | - | 250 W/m² | - |
| 1778177099 | 17.22° C | 59% | 1016.2 hPa | 0 mm | - | 1029 W/m² | - |
| 1778176795 | 17.22° C | 58% | 1016 hPa | 0 mm | - | 777 W/m² | - |
| 1778176492 | 17.78° C | 59% | 1016.2 hPa | 0 mm | - | 926 W/m² | - |
| 1778176189 | 17.78° C | 57% | 1016.3 hPa | 0 mm | - | 1092 W/m² | - |
| 1778175886 | 17.78° C | 55% | 1016.2 hPa | 0 mm | - | 1074 W/m² | - |
| 1778175583 | 17.78° C | 58% | 1016.4 hPa | 0 mm | - | 682 W/m² | - |
| 1778175281 | 17.78° C | 65% | 1016.2 hPa | 0 mm | - | 974 W/m² | - |
| 1778174978 | 17.22° C | 59% | 1016.5 hPa | 0 mm | - | 1037 W/m² | - |
| 1778174674 | 16.11° C | 59% | 1016.6 hPa | 0 mm | - | 317 W/m² | - |
| 1778174370 | 17.22° C | 60% | 1016.5 hPa | 0 mm | - | 283 W/m² | - |
| 1778174066 | 17.22° C | 63% | 1016.5 hPa | 0 mm | - | 1069 W/m² | - |
* Rain latest hour (hover to see other rain measurements)
** Current wind speed in m/s (hover to see current wind gust speed)